[[{"header":{"parameterUnit":"m.s-1","parameterCategory":1,"la1":30.2991,"la2":30.254,"lo1":-89.0895,"lo2":-89.0444,"dy":0.0017,"dx":0.0017,"nx":28,"ny":28,"refTime":"2025-05-18T03:00:00:Z","depth":0,"parameterNumber":2,"parameterNumberName":"U-component_of_WINDS"},"data":[0,0,0,0,0,0,0,0,0,0,0,0,0,0,0,0,0,0,0,0,0,0,0,0,0,0,0,0,0,0,0,0,0,0,0,0,0,0,0,0,0,0,0,0,0,0,0,0,0,0,0,0,0,0,0,0,0,0,1.0215,1.0216,0,1.0301,1.0302,1.0303,1.0316,1.0315,1.0315,1.0314,1.0404,1.0407,1.0411,0,0,0,0,0,0,0,0,0,0,0,0,0,1.0063,1.0066,1.0215,1.0216,1.0217,1.0301,1.0302,1.0303,1.0316,1.0315,1.0314,1.0314,1.0403,1.0407,1.0411,0,0,0,0,0,0,0,0,0,0,0,0,0,1.0137,1.0067,1.0215,1.0234,1.0236,1.03,1.0302,1.0303,1.0316,1.0315,1.0314,1.0313,1.0402,1.0407,1.0411,1.0464,0,0,1.0426,1.0428,0,0,0,0,0,0,0,0,1.0133,1.0143,1.023,1.0232,1.0235,1.0297,1.0282,1.0357,1.0317,1.0286,1.0314,1.0312,1.037,1.0377,1.0396,1.0468,1.0472,1.0426,1.0429,1.0431,1.0432,0,0,0,0,0,0,0,1.0128,1.0139,1.0249,1.0231,1.0234,1.0238,1.0247,1.0296,1.0333,1.0289,1.029,1.03,1.0371,1.0391,1.0398,1.0473,1.0426,1.043,1.0433,1.0435,1.0591,1.0592,0,0,0,0,0,0,1.0119,1.0135,1.0246,1.0252,1.018,1.0242,1.0252,1.0278,1.0333,1.034,1.0301,1.03,1.0384,1.0392,1.0401,1.0465,1.0431,1.0435,1.0438,1.0589,1.0591,1.0592,0,0,0,0,0,0,1.0116,1.0129,1.0243,1.0193,1.0208,1.0246,1.0275,1.028,1.0301,1.0342,1.0349,1.0314,1.0383,1.0395,1.0447,1.0468,1.0437,1.0442,1.0588,1.059,1.0592,1.0593,0,0,0,0,0,0,1.0111,1.0128,1.0148,1.0194,1.0211,1.0287,1.0276,1.0283,1.0308,1.0308,1.0356,1.0363,1.0383,1.044,1.0452,1.0474,1.0445,1.0586,1.0589,1.0591,1.0592,1.0595,1.0598,0,0,0,0,0,1.0106,1.0146,1.0149,1.0162,1.0237,1.0288,1.0298,1.0319,1.031,1.033,1.0357,1.0362,1.0464,1.0446,1.0459,1.0483,1.0585,1.0588,1.0591,1.059,1.0595,1.0598,0,0,0,0,0,0,1.0102,1.0152,1.0156,1.0212,1.0245,1.0291,1.0317,1.0323,1.0362,1.036,1.0385,1.0396,1.0447,1.0471,1.0449,1.0535,1.0524,1.053,1.0519,1.0523,1.0526,1.052,1.0449,0,0,0,0,0,1.0108,1.0145,1.0187,1.0232,1.0249,1.028,1.0303,1.0316,1.0353,1.0368,1.0398,1.0434,1.0474,1.05,1.0539,1.0595,1.0605,1.0618,1.0621,1.0623,1.0628,1.0659,1.0665,1.0602,1.0602,1.0602,0,0,1.012,1.0152,1.0174,1.0232,1.026,1.0298,1.0292,1.0333,1.0362,1.0374,1.0425,1.0449,1.049,1.0544,1.057,1.0565,1.0648,1.0627,1.0629,1.0633,1.0662,1.0668,1.0673,1.0604,1.0604,1.0604,0,0,1.0161,1.0189,1.0229,1.0257,1.0298,1.0319,1.0328,1.0372,1.0387,1.0439,1.0449,1.0483,1.0552,1.0581,1.0605,1.0655,1.0661,1.0667,1.0684,1.0714,1.0719,1.0723,1.0741,1.0747,1.0672,1.0672,1.0672,0,1.0171,1.0229,1.0249,1.029,1.0315,1.0326,1.0367,1.0393,1.0445,1.0462,1.0456,1.0541,1.057,1.0631,1.0643,1.0662,1.0673,1.0662,1.0716,1.0721,1.0725,1.0742,1.0749,1.0672,1.0672,1.0672,1.0672,0,1.0239,1.0279,1.0306,1.0355,1.0383,1.0424,1.045,1.0476,1.0486,1.0507,1.0559,1.0594,1.064,1.0655,1.0666,1.0717,1.0712,1.0711,1.07,1.0731,1.0748,1.0754,1.0673,1.0673,1.0672,1.0672,0,0,1.0282,1.034,1.035,1.0372,1.0418,1.0449,1.049,1.0533,1.0555,1.059,1.0625,1.0682,1.068,1.0707,1.0721,1.0746,1.0783,1.0742,1.0743,1.0748,1.0841,1.0842,1.0849,1.0787,1.0788,1.0789,1.0837,0,1.0329,1.0401,1.0419,1.0481,1.0517,1.0527,1.0563,1.0595,1.0615,1.0649,1.0672,1.0711,1.0706,1.0722,1.0748,1.0773,1.0802,1.077,1.082,1.0821,1.0809,1.0858,1.0859,1.0902,1.0844,1.0845,1.0846,0,1.0393,1.0428,1.0493,1.0533,1.0549,1.058,1.0621,1.0653,1.069,1.0702,1.0731,1.0742,1.0785,1.0771,1.083,1.0807,1.0829,1.0844,1.0846,1.0852,1.0835,1.0864,1.0917,1.0923,1.0856,1.0855,1.0854,0,1.0417,1.0481,1.0528,1.0546,1.0594,1.0615,1.0636,1.0671,1.0696,1.0732,1.0748,1.0788,1.0811,1.0842,1.0864,1.0852,1.0921,1.0909,1.0933,1.0932,1.0947,1.0946,1.1004,1.0961,1.0961,1.096,1.096,0,1.0468,1.0507,1.0539,1.0568,1.0611,1.0632,1.0675,1.0696,1.0727,1.076,1.0772,1.0803,1.083,1.0864,1.0882,1.0927,1.0937,1.0949,1.0953,1.0948,1.0947,1.0963,1.096,1.0962,1.0962,1.0961,1.0961,0,1.0502,1.0526,1.0577,1.0617,1.0628,1.0659,1.0693,1.0721,1.0741,1.0783,1.0794,1.0825,1.0866,1.0891,1.0943,1.0955,1.1005,1.1008,1.0993,1.0994,1.1017,1.1014,1.1087,1.1098,1.1048,1.1048,1.1048,0,1.0533,1.0563,1.0606,1.0628,1.0649,1.0685,1.071,1.0731,1.0757,1.0799,1.0822,1.0863,1.0898,1.0963,1.0991,1.103,1.1035,1.1057,1.1041,1.1034,1.1035,1.1033,1.1035,1.106,1.1061,1.1061,1.1061,0,1.0585,1.0594,1.0629,1.0667,1.0696,1.0728,1.0759,1.0777,1.0803,1.0831,1.0872,1.0899,1.0951,1.0992,1.1034,1.1056,1.1063,1.1066,1.1074,1.1069,1.1058,1.1064,1.1,1.1064,1.1064,1.1064,1.1064,1.1064,1.0618,1.0645,1.0679,1.0717,1.0742,1.0771,1.0799,1.0821,1.0856,1.09,1.091,1.0953,1.0988,1.1044,1.1067,1.1102,1.1098,1.1109,1.1112,1.1115,1.1115,1.1052,1.1109,1.1109,1.1109,1.1109,1.1109,0,1.067,1.0692,1.0727,1.0769,1.0799,1.0802,1.0836,1.0861,1.0899,1.093,1.0963,1.101,1.1049,1.1079,1.1119,1.1141,1.1145,1.1151,1.115,1.1155,1.1116,1.1105,1.1147,1.1147,1.1147,1.1147,1.1147,1.1147,1.0701,1.0746,1.0759,1.0816,1.0838,1.088,1.0899,1.0926,1.095,1.1002,1.1034,1.1053,1.1084,1.1126,1.1162,1.117,1.1184,1.1189,1.1198,1.1161,1.1157,1.1153,1.1143,1.1192,1.1192,1.1233,1.1234,1.1234]},{"header":{"parameterUnit":"m.s-1","parameterCategory":1,"la1":30.2991,"la2":30.254,"lo1":-89.0895,"lo2":-89.0444,"dy":0.0017,"dx":0.0017,"nx":28,"ny":28,"refTime":"2025-05-18T03:00:00:Z","depth":0,"parameterNumber":3,"parameterNumberName":"V-component_of_WINDS"},"data":[0,0,0,0,0,0,0,0,0,0,0,0,0,0,0,0,0,0,0,0,0,0,0,0,0,0,0,0,0,0,0,0,0,0,0,0,0,0,0,0,0,0,0,0,0,0,0,0,0,0,0,0,0,0,0,0,0,0,3.6636,3.6636,0,3.666,3.6661,3.6661,3.6649,3.6648,3.6647,3.6647,3.6669,3.6671,3.6672,0,0,0,0,0,0,0,0,0,0,0,0,0,3.6574,3.6575,3.6636,3.6636,3.6636,3.666,3.6661,3.6661,3.6649,3.6648,3.6647,3.6646,3.6669,3.667,3.6672,0,0,0,0,0,0,0,0,0,0,0,0,0,3.66,3.6575,3.6636,3.6633,3.6633,3.666,3.6661,3.6661,3.6649,3.6648,3.6647,3.6646,3.6669,3.667,3.6672,3.6702,0,0,3.6678,3.6678,0,0,0,0,0,0,0,0,3.6598,3.6602,3.6633,3.6633,3.6633,3.6651,3.6647,3.6675,3.6649,3.6643,3.6647,3.6646,3.6664,3.6666,3.6673,3.6703,3.6704,3.6678,3.6679,3.668,3.668,0,0,0,0,0,0,0,3.6596,3.6601,3.6645,3.6634,3.6634,3.6629,3.6632,3.6652,3.6658,3.6643,3.6642,3.6646,3.6664,3.6671,3.6673,3.6705,3.6678,3.6679,3.668,3.6681,3.676,3.6761,0,0,0,0,0,0,3.6595,3.6599,3.6645,3.6646,3.6613,3.6631,3.6634,3.6646,3.6658,3.6659,3.6647,3.6645,3.6668,3.6671,3.6674,3.6709,3.668,3.6681,3.6682,3.6759,3.6761,3.6762,0,0,0,0,0,0,3.6594,3.6599,3.6644,3.6623,3.6628,3.6633,3.6647,3.6647,3.6654,3.6661,3.6661,3.6653,3.6668,3.6671,3.6695,3.671,3.6682,3.6684,3.6758,3.676,3.6761,3.6781,0,0,0,0,0,0,3.6592,3.6599,3.6612,3.6623,3.6629,3.6666,3.6648,3.6648,3.6658,3.6656,3.6667,3.6668,3.6667,3.6693,3.6697,3.6712,3.6685,3.6757,3.6759,3.6761,3.6779,3.6783,3.6787,0,0,0,0,0,3.659,3.6616,3.6612,3.6618,3.6645,3.6667,3.667,3.667,3.6659,3.6671,3.6675,3.6667,3.6708,3.6695,3.67,3.6716,3.6756,3.6758,3.6761,3.6778,3.6782,3.6787,0,0,0,0,0,0,3.6605,3.6617,3.6613,3.6644,3.6655,3.6665,3.668,3.6675,3.6688,3.6686,3.6684,3.6686,3.6711,3.6716,3.6702,3.6745,3.673,3.6733,3.6741,3.6746,3.675,3.6748,3.6687,0,0,0,0,0,3.6612,3.663,3.6639,3.6665,3.6671,3.6674,3.6684,3.6683,3.6693,3.6697,3.6703,3.6712,3.6727,3.6737,3.6751,3.678,3.6781,3.6793,3.6796,3.6799,3.6802,3.6817,3.6822,3.6769,3.6769,3.6769,0,0,3.6627,3.6635,3.6647,3.6668,3.6676,3.6693,3.6678,3.6697,3.671,3.67,3.6723,3.6727,3.6738,3.6764,3.6776,3.6769,3.6817,3.6802,3.6805,3.6806,3.682,3.6825,3.6829,3.6771,3.6771,3.677,0,0,3.6662,3.6671,3.6693,3.6701,3.6714,3.6716,3.6721,3.6732,3.6735,3.6758,3.6751,3.6765,3.679,3.6798,3.6805,3.6842,3.6835,3.6846,3.6865,3.688,3.6884,3.6888,3.69,3.6904,3.6849,3.6849,3.6849,0,3.6678,3.6705,3.6705,3.6724,3.6733,3.6726,3.6747,3.6755,3.6771,3.6777,3.6769,3.68,3.6807,3.6834,3.6843,3.685,3.6855,3.6845,3.6883,3.6887,3.689,3.6902,3.6907,3.685,3.685,3.685,3.685,0,3.6724,3.6742,3.6758,3.6775,3.6785,3.6806,3.6808,3.6818,3.6816,3.6818,3.6841,3.6849,3.6864,3.687,3.6868,3.6897,3.6892,3.6884,3.6869,3.6897,3.6908,3.6912,3.6852,3.6852,3.6851,3.6851,0,0,3.677,3.6785,3.6791,3.6798,3.6811,3.6824,3.6844,3.6859,3.6868,3.6879,3.6894,3.6916,3.6908,3.6916,3.6914,3.6927,3.6954,3.6916,3.6916,3.6923,3.6986,3.6992,3.6997,3.695,3.6951,3.6951,3.6985,0,3.6805,3.684,3.684,3.6872,3.6888,3.6881,3.6897,3.6906,3.6909,3.6922,3.6925,3.694,3.6928,3.6933,3.6945,3.6948,3.6967,3.6946,3.6963,3.6964,3.6961,3.7003,3.701,3.7041,3.6989,3.699,3.6991,0,3.6852,3.6865,3.6898,3.6908,3.6915,3.693,3.6943,3.6956,3.6966,3.6967,3.6975,3.6971,3.699,3.6974,3.6999,3.6984,3.6991,3.6994,3.6995,3.6996,3.6979,3.7005,3.7051,3.7056,3.6997,3.6997,3.6996,0,3.6881,3.6907,3.693,3.6936,3.6948,3.6959,3.6964,3.6972,3.6981,3.6992,3.6998,3.7011,3.7018,3.7028,3.7027,3.7016,3.7051,3.7036,3.7052,3.7052,3.706,3.7059,3.7107,3.7065,3.7065,3.7065,3.7064,0,3.6921,3.6941,3.6943,3.6958,3.698,3.6979,3.7001,3.7005,3.7012,3.7026,3.702,3.7033,3.7032,3.7044,3.7044,3.7064,3.7067,3.7067,3.7067,3.7068,3.7068,3.7072,3.707,3.7066,3.7066,3.7065,3.7065,0,3.6957,3.696,3.6984,3.6993,3.6996,3.7012,3.7019,3.7032,3.7034,3.7052,3.7056,3.7058,3.7073,3.7073,3.709,3.7089,3.7113,3.7111,3.711,3.711,3.7125,3.7124,3.7178,3.7184,3.7138,3.7139,3.7139,0,3.6982,3.6998,3.7009,3.7018,3.7024,3.7039,3.7048,3.7047,3.7056,3.7068,3.7079,3.7093,3.7104,3.7128,3.7131,3.7143,3.714,3.7158,3.7142,3.7142,3.714,3.7139,3.714,3.7161,3.7162,3.7162,3.7163,0,3.7026,3.7026,3.704,3.7054,3.7065,3.7076,3.7085,3.7093,3.7093,3.7104,3.7119,3.7128,3.7144,3.7158,3.717,3.7174,3.7168,3.7168,3.7172,3.7173,3.7172,3.7172,3.7119,3.7166,3.7166,3.7166,3.7165,3.7165,3.7057,3.7071,3.708,3.7095,3.7102,3.7112,3.7124,3.7127,3.714,3.7154,3.7153,3.7169,3.7177,3.7192,3.7197,3.721,3.7203,3.721,3.7211,3.7213,3.7214,3.717,3.7212,3.7212,3.7212,3.7212,3.7211,0,3.71,3.7106,3.712,3.7134,3.7145,3.7139,3.715,3.7159,3.7174,3.7182,3.7194,3.721,3.7223,3.7227,3.7239,3.7249,3.7246,3.7252,3.7251,3.7252,3.7219,3.7214,3.7254,3.7254,3.7254,3.7254,3.7254,3.7253,3.7124,3.7146,3.7147,3.7172,3.7177,3.7194,3.72,3.7208,3.7214,3.7234,3.7245,3.7247,3.7253,3.7266,3.7277,3.7278,3.7282,3.7289,3.7289,3.7258,3.7254,3.725,3.7245,3.729,3.729,3.732,3.732,3.732]}]]